Pittsburg, KS

5:24 AM CDT on April 26, 2017 (GMT -0500)
Atkinson Municipal

Weather History for KPTS - February, 2013

Change the Weather History Date:

Monday, February 11, 2013

  Actual Average (KJLN) Record (KJLN)
Temperature  
Mean Temperature 40 °F -  
Max Temperature 50 °F 45 °F 82 °F (2017)
Min Temperature 30 °F 27 °F -8 °F (1981)
Degree Days  
Heating Degree Days 25    
Moisture  
Dew Point 28 °F    
Average Humidity 68    
Maximum Humidity 100    
Minimum Humidity 43    
Precipitation  
Precipitation 0.00 in - - ()
Sea Level Pressure  
Sea Level Pressure 30.13 in    
Wind  
Wind Speed 5 mph (WNW)    
Max Wind Speed 8 mph    
Max Gust Speed -    
Visibility 10 miles    
Events      
Averages and records for this station are not official NWS values.
T = Trace of Precipitation, MM = Missing Value Source: NWS Daily Summary

Daily Weather History Graph

Daily Weather History Graph

Search for Another Location

Airport or City:

Trip Planner

Search our weather history database for the weather conditions in past years. The results will help you decide how hot, cold, wet, or windy it might be!

Date:

Astronomy

Feb. 11, 2013 Rise Set
Actual Time 7:12 AM CST 5:54 PM CST
Civil Twilight 6:45 AM CST 6:21 PM CST
Nautical Twilight 6:14 AM CST 6:52 PM CST
Astronomical Twilight 5:44 AM CST 7:22 PM CST
Moon 7:40 AM CST (2/11) 7:48 PM CST (2/11)
Length of Visible Light 11h 36m
Length of Day
10h 42m
Waxing Crescent, 3% of the Moon is Illuminated
Feb 11
Waxing Crescent
Feb 17
First Quarter
Feb 25
Full
Mar 4
Last Quarter
Mar 11
New

Hourly Weather History & Observations

Time (CST) Temp. Windchill Dew Point Humidity Pressure Visibility Wind Dir Wind Speed Gust Speed Precip Events Conditions
12:15 AM 40.5 °F 35.8 °F 28.2 °F 62% 30.02 in 10.0 mi West 6.9 mph - N/A   Clear
12:35 AM 39.7 °F 34.3 °F 27.7 °F 62% 30.03 in 10.0 mi West 8.1 mph - N/A   Clear
12:55 AM 38.3 °F 33.9 °F 27.0 °F 64% 30.03 in 10.0 mi West 5.8 mph - N/A   Clear
1:15 AM 37.9 °F 32.7 °F 27.3 °F 66% 30.02 in 10.0 mi West 6.9 mph - N/A   Clear
1:35 AM 37.9 °F 32.1 °F 26.6 °F 64% 30.03 in 10.0 mi West 8.1 mph - N/A   Clear
1:55 AM 37.9 °F 33.5 °F 27.1 °F 65% 30.04 in 10.0 mi West 5.8 mph - N/A   Clear
2:15 AM 37.9 °F 32.7 °F 27.5 °F 66% 30.04 in 10.0 mi West 6.9 mph - N/A   Clear
2:35 AM 37.8 °F 35.3 °F 27.5 °F 67% 30.04 in 10.0 mi WNW 3.5 mph - N/A   Clear
3:15 AM 36.3 °F 32.5 °F 27.0 °F 69% 30.04 in 10.0 mi NW 4.6 mph - N/A   Clear
3:35 AM 35.6 °F 31.7 °F 27.0 °F 71% 30.05 in 10.0 mi West 4.6 mph - N/A   Clear
3:55 AM 35.6 °F 30.7 °F 26.4 °F 69% 30.05 in 10.0 mi WNW 5.8 mph - N/A   Clear
4:15 AM 35.6 °F 32.8 °F 27.1 °F 71% 30.06 in 10.0 mi WNW 3.5 mph - N/A   Clear
4:35 AM 35.6 °F 31.7 °F 27.7 °F 73% 30.07 in 10.0 mi WNW 4.6 mph - N/A   Clear
4:55 AM 35.6 °F 32.8 °F 27.7 °F 73% 30.08 in 10.0 mi West 3.5 mph - N/A   Clear
5:15 AM 35.6 °F 29.9 °F 27.7 °F 73% 30.09 in 10.0 mi NW 6.9 mph - N/A   Clear
5:35 AM 35.6 °F 31.7 °F 28.4 °F 75% 30.10 in 10.0 mi NW 4.6 mph - N/A   Clear
5:55 AM 35.6 °F 30.7 °F 28.8 °F 76% 30.10 in 10.0 mi NW 5.8 mph - N/A   Clear
6:15 AM 33.4 °F 29.1 °F 27.1 °F 78% 30.11 in 10.0 mi WNW 4.6 mph - N/A   Clear
6:35 AM 32.9 °F 29.8 °F 26.4 °F 77% 30.12 in 10.0 mi NW 3.5 mph - N/A   Clear
6:55 AM 32.9 °F - 26.6 °F 78% 30.13 in 10.0 mi Calm Calm - N/A   Clear
7:15 AM 32.7 °F 28.3 °F 26.4 °F 78% 30.14 in 10.0 mi SW 4.6 mph - N/A   Clear
7:35 AM 31.8 °F 26.2 °F 27.0 °F 82% 30.15 in 10.0 mi WSW 5.8 mph - N/A   Clear
7:55 AM 32.9 °F 28.5 °F 28.4 °F 84% 30.15 in 10.0 mi West 4.6 mph - N/A   Clear
8:15 AM 32.9 °F 27.5 °F 27.3 °F 80% 30.16 in 10.0 mi West 5.8 mph - N/A   Clear
8:35 AM 35.1 °F 29.3 °F 27.3 °F 73% 30.17 in 10.0 mi WNW 6.9 mph - N/A   Clear
8:55 AM 35.6 °F 30.7 °F 26.2 °F 69% 30.17 in 10.0 mi NW 5.8 mph - N/A   Clear
9:15 AM 35.6 °F 30.7 °F 25.7 °F 67% 30.18 in 10.0 mi NW 5.8 mph - N/A   Clear
9:35 AM 37.2 °F 31.9 °F 27.0 °F 66% 30.19 in 10.0 mi NW 6.9 mph - N/A   Clear
9:55 AM 37.9 °F 32.7 °F 26.2 °F 63% 30.19 in 10.0 mi NNW 6.9 mph - N/A   Clear
10:15 AM 37.9 °F 32.7 °F 25.3 °F 60% 30.20 in 10.0 mi NNW 6.9 mph - N/A   Clear
10:35 AM 39.0 °F 34.0 °F 26.2 °F 60% 30.20 in 10.0 mi NNW 6.9 mph - N/A   Clear
10:55 AM 39.9 °F 35.1 °F 27.0 °F 60% 30.20 in 10.0 mi NW 6.9 mph - N/A   Clear
11:15 AM 40.5 °F 37.3 °F 27.1 °F 59% 30.20 in 10.0 mi WNW 4.6 mph - N/A   Clear
11:35 AM 41.0 °F 38.0 °F 27.3 °F 58% 30.19 in 10.0 mi WNW 4.6 mph - N/A   Clear
11:55 AM 41.7 °F 38.0 °F 27.5 °F 57% 30.19 in 10.0 mi WNW 5.8 mph - N/A   Clear
12:15 PM 42.4 °F 39.6 °F 28.2 °F 57% 30.18 in 10.0 mi West 4.6 mph - N/A   Clear
12:35 PM 43.0 °F 39.5 °F 28.0 °F 56% 30.18 in 10.0 mi NW 5.8 mph - N/A   Clear
12:55 PM 43.2 °F - 27.1 °F 53% 30.17 in 10.0 mi Calm Calm - N/A   Clear
1:15 PM 43.9 °F 42.3 °F 27.3 °F 52% 30.16 in 10.0 mi NW 3.5 mph - N/A   Clear
1:35 PM 44.6 °F 41.4 °F 27.9 °F 52% 30.15 in 10.0 mi NW 5.8 mph - N/A   Clear
1:55 PM 46.0 °F 43.1 °F 28.9 °F 51% 30.14 in 10.0 mi WNW 5.8 mph - N/A   Clear
2:15 PM 46.6 °F - 28.8 °F 50% 30.14 in 10.0 mi Calm Calm - N/A   Clear
2:35 PM 48.0 °F - 28.9 °F 48% 30.14 in 10.0 mi WNW 3.5 mph - N/A   Clear
2:55 PM 49.1 °F - 29.3 °F 46% 30.14 in 10.0 mi WNW 5.8 mph - N/A   Clear
3:15 PM 49.5 °F - 29.5 °F 46% 30.13 in 10.0 mi NW 5.8 mph - N/A   Clear
3:35 PM 48.9 °F - 28.2 °F 45% 30.13 in 10.0 mi WNW 4.6 mph - N/A   Clear
3:55 PM 50.4 °F - 29.1 °F 44% 30.12 in 10.0 mi Calm Calm - N/A   Clear
4:55 PM 50.2 °F - 28.4 °F 43% 30.12 in 10.0 mi NNW 3.5 mph - N/A   Clear
5:15 PM 48.7 °F - 27.0 °F 43% 30.12 in 10.0 mi WSW 3.5 mph - N/A   Clear
5:35 PM 48.2 °F - 27.7 °F 45% 30.12 in 10.0 mi Calm Calm - N/A   Clear
5:55 PM 46.9 °F - 27.9 °F 48% 30.12 in 10.0 mi Calm Calm - N/A   Clear
6:15 PM 45.0 °F - 26.4 °F 48% 30.12 in 10.0 mi Calm Calm - N/A   Clear
6:35 PM 43.7 °F - 27.5 °F 53% 30.12 in 10.0 mi Calm Calm - N/A   Clear
6:55 PM 40.5 °F - 29.7 °F 65% 30.13 in 10.0 mi Calm Calm - N/A   Clear
7:15 PM 38.7 °F - 29.7 °F 70% 30.14 in 10.0 mi Calm Calm - N/A   Clear
7:35 PM 37.8 °F - 28.9 °F 71% 30.13 in 10.0 mi Calm Calm - N/A   Clear
7:55 PM 36.5 °F - 30.7 °F 80% 30.14 in 10.0 mi Calm Calm - N/A   Clear
8:15 PM 35.6 °F - 30.9 °F 83% 30.14 in 10.0 mi Calm Calm - N/A   Clear
8:35 PM 34.5 °F - 31.1 °F 87% 30.14 in 10.0 mi Calm Calm - N/A   Clear
8:55 PM 34.5 °F - 30.2 °F 84% 30.15 in 10.0 mi Calm Calm - N/A   Clear
9:15 PM 35.1 °F - 31.1 °F 85% 30.14 in 10.0 mi Calm Calm - N/A   Clear
9:35 PM 33.6 °F - 29.8 °F 86% 30.15 in 10.0 mi Calm Calm - N/A   Clear
9:55 PM 32.5 °F - 31.6 °F 96% 30.15 in 10.0 mi Calm Calm - N/A   Clear
10:15 PM 31.6 °F - 30.6 °F 96% 30.15 in 10.0 mi Calm Calm - N/A   Clear
10:35 PM 32.0 °F - 30.7 °F 95% 30.15 in 10.0 mi Calm Calm - N/A   Clear
10:55 PM 31.3 °F - 31.3 °F 100% 30.15 in 10.0 mi Calm Calm - N/A   Clear
11:15 PM 30.7 °F - 30.9 °F 100% 30.16 in 10.0 mi Calm Calm - N/A   Clear
11:35 PM 30.7 °F - 30.9 °F 100% 30.16 in 10.0 mi Calm Calm - N/A   Clear
11:55 PM 30.7 °F - 30.9 °F 100% 30.16 in 10.0 mi Calm Calm - N/A   Clear